When you browse on this site, cookies collect data to enhance your experience and personalize the content and advertising you see.
Visit our Privacy Policy to learn more. By continuing to use the site, you agree to this use of cookies and data.
  • In Czech Republic
  • List of Countries
  • For 7 days
  • Water Temperature
  • Weather Map
  • Weather Widgets
  • user-avatar
    Login

    Hourly Weather Stayki (Timonovo)

    Today, 13 December, Friday

    Time Temperature Precipitation Wind Pressure Humidity
    00:00 -1°C° 0 mm 5 mps 747 mmHg 94%
    01:00 -1°C° 0 mm 4 mps 747 mmHg 93%
    02:00 -1°C° 0 mm 4 mps 746 mmHg 91%
    03:00 -1°C° 0 mm 4 mps 746 mmHg 92%
    04:00 -1°C° 0 mm 4 mps 745 mmHg 93%
    05:00 -1°C° 0 mm 4 mps 745 mmHg 94%
    06:00 -1°C° 0.1 mm 4 mps 745 mmHg 95%
    07:00 -1°C° 0.1 mm 4 mps 745 mmHg 95%
    08:00 -1°C° 0.1 mm 4 mps 745 mmHg 96%
    09:00 -1°C° 0.1 mm 5 mps 744 mmHg 95%
    10:00 -1°C° 0.1 mm 5 mps 744 mmHg 94%
    11:00 -1°C° 0.1 mm 5 mps 743 mmHg 93%
    12:00 -1°C° 0.1 mm 5 mps 743 mmHg 91%
    13:00 -1°C° 0.1 mm 5 mps 743 mmHg 90%
    14:00 -1°C° 0.1 mm 5 mps 743 mmHg 88%
    15:00 -1°C° 0 mm 5 mps 742 mmHg 88%
    16:00 -1°C° 0 mm 5 mps 742 mmHg 88%
    17:00 -2°C° 0 mm 5 mps 742 mmHg 87%
    18:00 -1°C° 0 mm 5 mps 742 mmHg 87%
    19:00 -1°C° 0 mm 5 mps 742 mmHg 87%
    20:00 -1°C° 0 mm 5 mps 742 mmHg 87%
    21:00 -1°C° 0 mm 5 mps 742 mmHg 86%
    22:00 -2°C° 0 mm 6 mps 742 mmHg 85%
    23:00 -2°C° 0 mm 6 mps 742 mmHg 84%

    Tomorrow, 14 December, Saturday

    Time Temperature Precipitation Wind Pressure Humidity
    00:00 -2°C° 0 mm 6 mps 742 mmHg 84%
    01:00 -2°C° 0 mm 6 mps 742 mmHg 84%
    02:00 -2°C° 0 mm 6 mps 742 mmHg 84%
    03:00 -2°C° 0 mm 6 mps 742 mmHg 83%
    04:00 -2°C° 0 mm 6 mps 742 mmHg 83%
    05:00 -2°C° 0 mm 6 mps 742 mmHg 82%
    06:00 -1°C° 0 mm 5 mps 742 mmHg 82%
    07:00 -1°C° 0 mm 5 mps 742 mmHg 83%
    08:00 -1°C° 0 mm 5 mps 743 mmHg 84%
    09:00 -1°C° 0 mm 5 mps 743 mmHg 85%
    10:00 -1°C° 0 mm 5 mps 743 mmHg 86%
    11:00 -1°C° 0 mm 5 mps 742 mmHg 87%
    12:00 -1°C° 0 mm 5 mps 742 mmHg 89%
    13:00 -1°C° 0 mm 5 mps 742 mmHg 92%
    14:00 -1°C° 0 mm 5 mps 742 mmHg 94%
    15:00 -1°C° 0 mm 5 mps 742 mmHg 95%
    16:00 -1°C° 0 mm 5 mps 742 mmHg 95%
    17:00 -1°C° 0 mm 4 mps 742 mmHg 96%
    18:00 -1°C° 0 mm 4 mps 742 mmHg 95%
    19:00 -1°C° 0 mm 4 mps 742 mmHg 95%
    20:00 0°C° 0 mm 4 mps 742 mmHg 95%
    21:00 0°C° 0 mm 4 mps 742 mmHg 95%
    22:00 0°C° 0 mm 4 mps 742 mmHg 95%
    23:00 -1°C° 0 mm 4 mps 741 mmHg 94%

    Day after tomorrow, 15 December, Sunday

    Time Temperature Precipitation Wind Pressure Humidity
    00:00 0°C° 0 mm 5 mps 741 mmHg 95%
    01:00 0°C° 0 mm 5 mps 741 mmHg 96%
    02:00 0°C° 0 mm 5 mps 741 mmHg 96%
    03:00 0°C° 0.3 mm 4 mps 741 mmHg 96%
    04:00 +1°C° 0.3 mm 4 mps 740 mmHg 96%
    05:00 +1°C° 0.3 mm 4 mps 740 mmHg 96%
    06:00 +1°C° 0.3 mm 4 mps 740 mmHg 96%
    07:00 +3°C° 0.3 mm 4 mps 740 mmHg 96%
    08:00 +3°C° 0.3 mm 4 mps 740 mmHg 96%
    09:00 +3°C° 0.2 mm 4 mps 741 mmHg 96%
    10:00 +3°C° 0.2 mm 4 mps 741 mmHg 96%
    11:00 +3°C° 0.2 mm 4 mps 741 mmHg 96%
    12:00 +3°C° 0 mm 4 mps 741 mmHg 91%
    13:00 +3°C° 0 mm 3 mps 742 mmHg 87%
    14:00 +3°C° 0 mm 3 mps 742 mmHg 83%
    15:00 +3°C° 0 mm 3 mps 743 mmHg 85%
    16:00 +2°C° 0 mm 3 mps 743 mmHg 87%
    17:00 +1°C° 0 mm 3 mps 744 mmHg 89%
    18:00 +1°C° 0 mm 3 mps 744 mmHg 89%
    19:00 0°C° 0 mm 4 mps 744 mmHg 89%
    20:00 0°C° 0 mm 4 mps 744 mmHg 89%
    21:00 0°C° 0 mm 4 mps 744 mmHg 87%
    22:00 0°C° 0 mm 5 mps 744 mmHg 86%
    23:00 0°C° 0 mm 5 mps 744 mmHg 85%

    16 December, Monday

    Time Temperature Precipitation Wind Pressure Humidity
    00:00 +1°C° 0 mm 5 mps 744 mmHg 85%
    01:00 +1°C° 0 mm 5 mps 744 mmHg 86%
    02:00 +1°C° 0 mm 5 mps 744 mmHg 86%
    03:00 +1°C° 0 mm 5 mps 745 mmHg 87%
    04:00 +1°C° 0 mm 5 mps 745 mmHg 87%
    05:00 +1°C° 0 mm 5 mps 745 mmHg 88%
    06:00 +1°C° 0 mm 4 mps 746 mmHg 88%
    07:00 +1°C° 0 mm 4 mps 746 mmHg 89%
    08:00 0°C° 0 mm 4 mps 746 mmHg 89%
    09:00 +1°C° 0 mm 4 mps 747 mmHg 88%
    10:00 +1°C° 0 mm 4 mps 747 mmHg 87%
    11:00 +3°C° 0 mm 4 mps 748 mmHg 86%
    12:00 +3°C° 0 mm 4 mps 748 mmHg 84%
    13:00 +3°C° 0 mm 4 mps 748 mmHg 82%
    14:00 +3°C° 0 mm 3 mps 748 mmHg 79%
    15:00 +2°C° 0 mm 3 mps 748 mmHg 82%
    16:00 +1°C° 0 mm 3 mps 748 mmHg 85%
    17:00 +2°C° 0 mm 2 mps 749 mmHg 88%
    18:00 +1°C° 0 mm 2 mps 749 mmHg 88%
    19:00 +1°C° 0 mm 2 mps 749 mmHg 89%
    20:00 +1°C° 0 mm 2 mps 749 mmHg 90%
    21:00 +1°C° 0 mm 2 mps 749 mmHg 91%
    22:00 +2°C° 0 mm 2 mps 749 mmHg 91%
    23:00 +1°C° 0 mm 3 mps 749 mmHg 92%

    17 December, Tuesday

    Time Temperature Precipitation Wind Pressure Humidity
    00:00 +1°C° 0 mm 3 mps 749 mmHg 92%
    01:00 +1°C° 0 mm 3 mps 748 mmHg 93%
    02:00 +1°C° 0 mm 3 mps 748 mmHg 93%
    03:00 +1°C° 0 mm 3 mps 748 mmHg 92%
    04:00 +2°C° 0 mm 3 mps 748 mmHg 92%
    05:00 +2°C° 0 mm 3 mps 748 mmHg 92%
    06:00 +2°C° 0 mm 3 mps 748 mmHg 91%
    07:00 +2°C° 0 mm 3 mps 747 mmHg 90%
    08:00 +2°C° 0 mm 3 mps 747 mmHg 89%
    09:00 +2°C° 0 mm 3 mps 747 mmHg 88%
    10:00 +2°C° 0 mm 3 mps 748 mmHg 87%
    11:00 +3°C° 0 mm 4 mps 748 mmHg 86%
    12:00 +3°C° 0 mm 3 mps 747 mmHg 87%
    13:00 +3°C° 0 mm 3 mps 747 mmHg 87%
    14:00 +3°C° 0 mm 3 mps 747 mmHg 88%
    15:00 +3°C° 0 mm 3 mps 747 mmHg 89%
    16:00 +2°C° 0 mm 3 mps 747 mmHg 90%
    17:00 +2°C° 0 mm 3 mps 747 mmHg 91%
    18:00 +2°C° 0 mm 3 mps 746 mmHg 91%
    19:00 +2°C° 0 mm 3 mps 746 mmHg 90%
    20:00 +1°C° 0 mm 4 mps 746 mmHg 90%
    21:00 +2°C° 0 mm 3 mps 746 mmHg 91%
    22:00 +2°C° 0 mm 3 mps 746 mmHg 91%
    23:00 +2°C° 0 mm 3 mps 746 mmHg 91%

    18 December, Wednesday

    Time Temperature Precipitation Wind Pressure Humidity
    00:00 +2°C° 0 mm 3 mps 746 mmHg 91%
    01:00 +2°C° 0 mm 3 mps 745 mmHg 92%
    02:00 +2°C° 0 mm 3 mps 745 mmHg 92%
    03:00 +2°C° 0 mm 3 mps 745 mmHg 91%
    04:00 +2°C° 0 mm 3 mps 744 mmHg 91%
    05:00 +2°C° 0 mm 3 mps 744 mmHg 91%
    06:00 +2°C° 0 mm 3 mps 743 mmHg 91%
    07:00 +1°C° 0 mm 3 mps 743 mmHg 91%
    08:00 +1°C° 0 mm 3 mps 743 mmHg 91%
    09:00 +2°C° 0 mm 3 mps 742 mmHg 90%
    10:00 +1°C° 0 mm 4 mps 742 mmHg 89%
    11:00 +3°C° 0 mm 4 mps 742 mmHg 88%
    12:00 +2°C° 0 mm 5 mps 741 mmHg 87%
    13:00 +3°C° 0 mm 6 mps 741 mmHg 87%
    14:00 +3°C° 0 mm 6 mps 740 mmHg 87%
    15:00 +4°C° 0 mm 7 mps 740 mmHg 85%
    16:00 +4°C° 0 mm 7 mps 740 mmHg 83%
    17:00 +5°C° 0 mm 8 mps 740 mmHg 81%
    18:00 +5°C° 0 mm 9 mps 740 mmHg 78%
    19:00 +3°C° 0 mm 10 mps 741 mmHg 75%
    20:00 +2°C° 0 mm 10 mps 741 mmHg 73%
    21:00 +2°C° 0 mm 10 mps 742 mmHg 76%
    22:00 +1°C° 0 mm 9 mps 743 mmHg 79%
    23:00 0°C° 0 mm 8 mps 745 mmHg 83%
    Show more